Ainsworth, NE

5:06 PM CDT on October 18, 2019 (GMT -0500)
Ainsworth Municipal

Weather History for KANW - August, 2019

Change the Weather History Date:

Sunday, August 18, 2019

  Actual Average Record
Temperature  
Mean Temperature 64 °F -  
Max Temperature 73 °F 83 °F 136 °F (1997)
Min Temperature 56 °F 58 °F 51 °F (2012)
Growing Degree Days 14 (Base 50)    
Moisture  
Dew Point 58 °F    
Average Humidity 83    
Maximum Humidity 100    
Minimum Humidity 60    
Precipitation  
Precipitation 0.00 in - - ()
Sea Level Pressure  
Sea Level Pressure 29.94 in    
Wind  
Wind Speed 10 mph (NE)    
Max Wind Speed 20 mph    
Max Gust Speed 28 mph    
Visibility 10 miles    
Events      
Averages and records for this station are not official NWS values.
T = Trace of Precipitation, MM = Missing Value Source: NWS Daily Summary

Daily Weather History Graph

Daily Weather History Graph

Search for Another Location

Airport or City:

Astronomy

Aug. 18, 2019 Rise Set
Actual Time 6:49 AM CDT 8:37 PM CDT
Civil Twilight 6:19 AM CDT 9:07 PM CDT
Nautical Twilight 5:42 AM CDT 9:43 PM CDT
Astronomical Twilight 5:03 AM CDT 10:23 PM CDT
Moon 10:29 PM CDT 9:39 AM CDT
Length of Visible Light 14h 47m
Length of Day
13h 47m
Waning Gibbous, 91% of the Moon is Illuminated
Aug 18
Waning Gibbous
Aug 23
Last Quarter
Aug 30
New
Sep 5
First Quarter
Sep 13
Full

Hourly Weather History & Observations

Time (CDT) Temp. Dew Point Humidity Pressure Visibility Wind Dir Wind Speed Gust Speed Precip Events Conditions
12:15 AM 63.5 °F 62.6 °F 97% 29.83 in 10.0 mi NNE 12.7 mph 19.6 mph N/A   Scattered Clouds
12:35 AM 63.3 °F 61.7 °F 94% 29.84 in 10.0 mi NNE 19.6 mph 24.2 mph N/A   Mostly Cloudy
12:55 AM 62.4 °F 62.1 °F 99% 29.84 in 10.0 mi North 15.0 mph 21.9 mph N/A   Overcast
1:15 AM 61.7 °F 61.7 °F 100% 29.84 in 10.0 mi North 16.1 mph 27.6 mph N/A   Mostly Cloudy
1:35 AM 61.2 °F 61.2 °F 100% 29.84 in 10.0 mi North 16.1 mph 24.2 mph N/A   Overcast
1:55 AM 60.8 °F 60.8 °F 100% 29.84 in 10.0 mi North 17.3 mph 21.9 mph N/A   Overcast
2:15 AM 60.1 °F 60.1 °F 100% 29.84 in 10.0 mi North 17.3 mph 21.9 mph N/A   Overcast
2:35 AM 59.9 °F 59.9 °F 100% 29.85 in 10.0 mi North 12.7 mph 24.2 mph N/A   Overcast
2:55 AM 59.9 °F 59.9 °F 100% 29.85 in 10.0 mi North 16.1 mph 26.5 mph N/A   Overcast
3:15 AM 59.0 °F 59.0 °F 100% 29.86 in 10.0 mi North 16.1 mph 20.7 mph N/A   Overcast
3:35 AM 58.5 °F 58.5 °F 100% 29.87 in 10.0 mi North 19.6 mph 23.0 mph N/A   Overcast
3:55 AM 58.1 °F 58.1 °F 100% 29.88 in 10.0 mi North 15.0 mph 20.7 mph N/A   Overcast
4:15 AM 57.4 °F 57.4 °F 100% 29.88 in 10.0 mi North 12.7 mph - N/A   Overcast
4:35 AM 57.4 °F 57.4 °F 100% 29.89 in 10.0 mi North 12.7 mph 17.3 mph N/A   Overcast
4:55 AM 57.4 °F 57.4 °F 100% 29.90 in 10.0 mi North 10.4 mph - N/A   Overcast
5:15 AM 57.4 °F 57.4 °F 100% 29.92 in 10.0 mi North 11.5 mph 17.3 mph N/A   Overcast
5:35 AM 57.4 °F 57.4 °F 100% 29.92 in 10.0 mi North 10.4 mph - N/A   Overcast
5:55 AM 57.2 °F 57.2 °F 100% 29.94 in 10.0 mi North 6.9 mph - N/A   Overcast
6:15 AM 57.2 °F 57.2 °F 100% 29.93 in 10.0 mi NNW 12.7 mph - N/A   Overcast
6:35 AM 57.2 °F 57.2 °F 100% 29.94 in 10.0 mi North 12.7 mph 17.3 mph N/A   Overcast
6:55 AM 56.8 °F 56.8 °F 100% 29.96 in 10.0 mi NNW 10.4 mph - N/A   Overcast
7:15 AM 57.2 °F 57.2 °F 100% 29.96 in 10.0 mi NNW 10.4 mph - N/A   Overcast
7:35 AM 57.2 °F 57.2 °F 100% 29.97 in 10.0 mi NNW 12.7 mph - N/A   Overcast
7:55 AM 57.2 °F 57.2 °F 100% 29.97 in 10.0 mi NNW 12.7 mph - N/A   Overcast
8:15 AM 57.2 °F 56.1 °F 96% 29.99 in 10.0 mi NNW 11.5 mph 17.3 mph N/A   Overcast
8:35 AM 56.7 °F 55.6 °F 96% 29.99 in 10.0 mi North 10.4 mph - N/A   Mostly Cloudy
8:55 AM 57.2 °F 54.1 °F 89% 29.99 in 10.0 mi North 11.5 mph - N/A   Clear
9:15 AM 57.7 °F 54.0 °F 87% 29.99 in 10.0 mi North 5.8 mph - N/A   Clear
9:35 AM 59.2 °F 53.2 °F 81% 29.99 in 10.0 mi NNW 4.6 mph - N/A   Clear
9:55 AM 60.1 °F 52.7 °F 77% 29.98 in 10.0 mi NNW 4.6 mph - N/A   Clear
10:15 AM 60.4 °F 51.6 °F 73% 29.98 in 10.0 mi Calm Calm - N/A   Clear
10:35 AM 61.5 °F 51.6 °F 70% 29.99 in 10.0 mi Calm Calm - N/A   Clear
10:55 AM 61.9 °F 51.6 °F 69% 29.99 in 10.0 mi Calm Calm - N/A   Clear
11:15 AM 63.1 °F 52.3 °F 68% 29.99 in 10.0 mi Calm Calm - N/A   Clear
11:35 AM 64.0 °F 52.9 °F 67% 29.99 in 10.0 mi Calm Calm - N/A   Clear
11:55 AM 65.3 °F 53.2 °F 65% 29.99 in 10.0 mi Calm Calm - N/A   Clear
12:15 PM 65.8 °F 52.5 °F 62% 29.99 in 10.0 mi Calm Calm - N/A   Clear
12:35 PM 66.2 °F 53.1 °F 63% 29.99 in 10.0 mi Calm Calm - N/A   Clear
12:55 PM 67.5 °F 53.6 °F 61% 29.99 in 10.0 mi East 3.5 mph - N/A   Clear
1:15 PM 67.6 °F 54.0 °F 61% 29.99 in 10.0 mi Calm Calm - N/A   Clear
1:35 PM 68.5 °F 55.2 °F 62% 29.99 in 10.0 mi Calm Calm - N/A   Clear
1:55 PM 67.5 °F 54.7 °F 64% 29.98 in 10.0 mi Calm Calm - N/A   Clear
2:15 PM 69.1 °F 55.8 °F 62% 29.98 in 10.0 mi Calm Calm - N/A   Clear
2:35 PM 69.3 °F 56.5 °F 64% 29.97 in 10.0 mi NE 4.6 mph - N/A   Clear
2:55 PM 70.0 °F 56.8 °F 63% 29.97 in 10.0 mi East 4.6 mph - N/A   Clear
3:15 PM 70.9 °F 56.5 °F 60% 29.96 in 10.0 mi East 4.6 mph - N/A   Clear
3:35 PM 71.4 °F 56.8 °F 60% 29.95 in 10.0 mi Calm Calm - N/A   Clear
3:55 PM 71.8 °F 58.3 °F 62% 29.95 in 10.0 mi East 5.8 mph - N/A   Scattered Clouds
4:15 PM 72.0 °F 57.9 °F 61% 29.94 in 10.0 mi SE 6.9 mph - N/A   Scattered Clouds
4:35 PM 72.5 °F 57.9 °F 60% 29.94 in 10.0 mi East 4.6 mph - N/A   Clear
4:55 PM 73.0 °F 59.0 °F 61% 29.94 in 10.0 mi ESE 4.6 mph - N/A   Clear
5:15 PM 72.1 °F 59.2 °F 64% 29.94 in 10.0 mi East 5.8 mph - N/A   Scattered Clouds
5:35 PM 72.5 °F 59.4 °F 63% 29.94 in 10.0 mi SE 6.9 mph - N/A   Scattered Clouds
5:55 PM 73.2 °F 59.9 °F 63% 29.94 in 10.0 mi ESE 6.9 mph - N/A   Mostly Cloudy
6:15 PM 70.7 °F 60.1 °F 69% 29.92 in 10.0 mi East 5.8 mph - N/A   Scattered Clouds
6:35 PM 72.7 °F 60.1 °F 64% 29.92 in 10.0 mi East 9.2 mph - N/A   Scattered Clouds
6:55 PM 72.7 °F 60.6 °F 66% 29.91 in 10.0 mi ESE 8.1 mph - N/A   Scattered Clouds
7:15 PM 72.0 °F 60.4 °F 67% 29.91 in 10.0 mi ESE 9.2 mph - N/A   Clear
7:35 PM 71.8 °F 61.0 °F 69% 29.91 in 10.0 mi SE 8.1 mph - N/A   Clear
7:55 PM 70.5 °F 61.3 °F 73% 29.91 in 10.0 mi SE 5.8 mph - N/A   Clear
8:15 PM 69.3 °F 60.8 °F 74% 29.92 in 10.0 mi SE 5.8 mph - N/A   Clear
8:35 PM 67.1 °F 60.8 °F 80% 29.93 in 10.0 mi SE 4.6 mph - N/A   Clear
8:55 PM 64.9 °F 63.0 °F 93% 29.94 in 10.0 mi SE 5.8 mph - N/A   Clear
9:15 PM 64.6 °F 62.6 °F 93% 29.95 in 10.0 mi SE 5.8 mph - N/A   Clear
9:35 PM 62.8 °F 62.6 °F 99% 29.96 in 10.0 mi East 5.8 mph - N/A   Clear
9:55 PM 62.1 °F 62.1 °F 100% 29.96 in 10.0 mi ESE 5.8 mph - N/A   Clear
10:15 PM 61.2 °F 61.2 °F 100% 29.97 in 10.0 mi ESE 5.8 mph - N/A   Clear
10:35 PM 61.3 °F 61.3 °F 100% 29.97 in 10.0 mi SE 6.9 mph - N/A   Clear
10:55 PM 62.4 °F 62.4 °F 100% 29.97 in 10.0 mi ESE 5.8 mph - N/A   Clear
11:15 PM 61.3 °F 61.3 °F 100% 29.97 in 10.0 mi SE 5.8 mph - N/A   Clear
11:35 PM 61.7 °F 61.7 °F 100% 29.98 in 10.0 mi SE 5.8 mph - N/A   Clear
11:55 PM 61.7 °F 61.7 °F 100% 29.98 in 10.0 mi SE 4.6 mph - N/A   Clear